Location: Kumla
(59.1265°N, 15.1401°E)
Time: 18:04:51
(UTC+01:00)

Altair - Pass Details

Date: 04 December 2023
Orbit: 1501 x 1682 km, 47.2° (Epoch: 25 February)

Event Time Altitude Azimuth Distance (km) Brightness Sun altitude
Rises 12:39:03 0° 266° (W) 4,739 10.3 8.0°
Reaches altitude 10° 12:42:26 10° 258° (WSW) 3,730 9.9 7.9°
Maximum altitude 12:50:38 36° 197° (SSW) 2,232 9.7 7.7°
Drops below altitude 10° 12:58:40 10° 135° (SE) 3,652 9.9 7.4°
Sets 13:01:58 0° 127° (SE) 4,630 10.3 7.3°
